Hourly Weather Gola

Today, 18 May, Tuesday

Time Temperature Precipitation Wind Pressure Humidity
00:00 +8°C° 0 mm 5 mps 740 mmHg 91%
01:00 +8°C° 0 mm 5 mps 741 mmHg 91%
02:00 +8°C° 0 mm 5 mps 741 mmHg 91%
03:00 +7°C° 0 mm 5 mps 741 mmHg 91%
04:00 +7°C° 0 mm 5 mps 741 mmHg 92%
05:00 +7°C° 0 mm 5 mps 741 mmHg 90%
06:00 +8°C° 0 mm 5 mps 742 mmHg 88%
07:00 +9°C° 0 mm 5 mps 742 mmHg 86%
08:00 +10°C° 0.1 mm 5 mps 742 mmHg 84%
09:00 +12°C° 0.1 mm 5 mps 742 mmHg 81%
10:00 +11°C° 0.1 mm 6 mps 742 mmHg 78%
11:00 +13°C° 0.3 mm 6 mps 743 mmHg 75%
12:00 +14°C° 0.3 mm 6 mps 743 mmHg 73%
13:00 +14°C° 0.3 mm 6 mps 743 mmHg 71%
14:00 +14°C° 0.1 mm 6 mps 743 mmHg 69%
15:00 +15°C° 0.1 mm 5 mps 743 mmHg 66%
16:00 +15°C° 0.1 mm 5 mps 743 mmHg 64%
17:00 +14°C° 0.1 mm 4 mps 743 mmHg 70%
18:00 +13°C° 0.1 mm 4 mps 743 mmHg 76%
19:00 +11°C° 0.1 mm 3 mps 743 mmHg 82%
20:00 +10°C° 0 mm 3 mps 744 mmHg 86%
21:00 +9°C° 0 mm 3 mps 744 mmHg 90%
22:00 +8°C° 0 mm 3 mps 744 mmHg 95%
23:00 +7°C° 0 mm 4 mps 744 mmHg 95%

Tomorrow, 19 May, Wednesday

Time Temperature Precipitation Wind Pressure Humidity
00:00 +7°C° 0 mm 4 mps 744 mmHg 95%
01:00 +7°C° 0 mm 4 mps 744 mmHg 95%
02:00 +6°C° 0 mm 4 mps 745 mmHg 95%
03:00 +6°C° 0 mm 4 mps 745 mmHg 95%
04:00 +6°C° 0 mm 4 mps 745 mmHg 94%
05:00 +7°C° 0 mm 4 mps 745 mmHg 92%
06:00 +8°C° 0 mm 4 mps 745 mmHg 89%
07:00 +8°C° 0 mm 5 mps 745 mmHg 87%
08:00 +10°C° 0 mm 4 mps 746 mmHg 86%
09:00 +10°C° 0 mm 4 mps 746 mmHg 85%
10:00 +10°C° 0 mm 4 mps 746 mmHg 84%
11:00 +10°C° 0.2 mm 5 mps 746 mmHg 81%
12:00 +10°C° 0.2 mm 6 mps 746 mmHg 79%
13:00 +11°C° 0.2 mm 6 mps 746 mmHg 77%
14:00 +10°C° 0.1 mm 6 mps 746 mmHg 76%
15:00 +10°C° 0.1 mm 5 mps 746 mmHg 76%
16:00 +10°C° 0.1 mm 5 mps 746 mmHg 75%
17:00 +10°C° 0 mm 4 mps 747 mmHg 77%
18:00 +10°C° 0 mm 3 mps 747 mmHg 79%
19:00 +9°C° 0 mm 3 mps 747 mmHg 81%
20:00 +9°C° 0 mm 2 mps 747 mmHg 83%
21:00 +8°C° 0 mm 2 mps 747 mmHg 85%
22:00 +7°C° 0 mm 2 mps 747 mmHg 87%
23:00 +7°C° 0 mm 2 mps 747 mmHg 87%

Day after tomorrow, 20 May, Thursday

Time Temperature Precipitation Wind Pressure Humidity
00:00 +7°C° 0 mm 2 mps 747 mmHg 87%
01:00 +7°C° 0 mm 2 mps 747 mmHg 86%
02:00 +6°C° 0 mm 2 mps 748 mmHg 89%
03:00 +4°C° 0 mm 3 mps 748 mmHg 92%
04:00 +4°C° 0 mm 3 mps 748 mmHg 94%
05:00 +7°C° 0 mm 3 mps 748 mmHg 89%
06:00 +8°C° 0 mm 3 mps 749 mmHg 84%
07:00 +10°C° 0 mm 3 mps 749 mmHg 79%
08:00 +11°C° 0.2 mm 4 mps 749 mmHg 76%
09:00 +12°C° 0.2 mm 4 mps 749 mmHg 73%
10:00 +13°C° 0.2 mm 5 mps 749 mmHg 70%
11:00 +13°C° 0.2 mm 5 mps 749 mmHg 67%
12:00 +14°C° 0.2 mm 5 mps 749 mmHg 65%
13:00 +14°C° 0.2 mm 6 mps 750 mmHg 62%
14:00 +14°C° 0 mm 5 mps 750 mmHg 62%
15:00 +13°C° 0 mm 5 mps 750 mmHg 62%
16:00 +13°C° 0 mm 5 mps 750 mmHg 62%
17:00 +12°C° 0 mm 5 mps 750 mmHg 66%
18:00 +12°C° 0 mm 4 mps 750 mmHg 69%
19:00 +11°C° 0 mm 4 mps 750 mmHg 73%
20:00 +9°C° 0 mm 3 mps 751 mmHg 78%
21:00 +8°C° 0 mm 3 mps 751 mmHg 84%
22:00 +7°C° 0 mm 2 mps 751 mmHg 89%
23:00 +6°C° 0 mm 2 mps 751 mmHg 91%

21 May, Friday

Time Temperature Precipitation Wind Pressure Humidity
00:00 +5°C° 0 mm 3 mps 751 mmHg 92%
01:00 +4°C° 0 mm 3 mps 751 mmHg 94%
02:00 +4°C° 0 mm 3 mps 751 mmHg 95%
03:00 +4°C° 0 mm 3 mps 751 mmHg 95%
04:00 +5°C° 0 mm 2 mps 751 mmHg 95%
05:00 +5°C° 0 mm 3 mps 751 mmHg 90%
06:00 +8°C° 0 mm 3 mps 751 mmHg 85%
07:00 +9°C° 0 mm 3 mps 751 mmHg 80%
08:00 +11°C° 0.1 mm 3 mps 750 mmHg 73%
09:00 +13°C° 0.1 mm 3 mps 750 mmHg 66%
10:00 +14°C° 0.1 mm 4 mps 750 mmHg 59%
11:00 +16°C° 0 mm 3 mps 749 mmHg 54%
12:00 +17°C° 0 mm 3 mps 749 mmHg 50%
13:00 +18°C° 0 mm 3 mps 748 mmHg 46%
14:00 +18°C° 0 mm 3 mps 748 mmHg 49%
15:00 +18°C° 0 mm 2 mps 747 mmHg 52%
16:00 +18°C° 0 mm 2 mps 747 mmHg 55%
17:00 +16°C° 0.1 mm 2 mps 746 mmHg 62%
18:00 +15°C° 0.1 mm 1 mps 746 mmHg 70%
19:00 +13°C° 0.1 mm 1 mps 746 mmHg 77%
20:00 +13°C° 0 mm 2 mps 745 mmHg 79%
21:00 +12°C° 0 mm 2 mps 745 mmHg 80%
22:00 +10°C° 0 mm 3 mps 744 mmHg 82%
23:00 +10°C° 0 mm 3 mps 744 mmHg 81%

22 May, Saturday

Time Temperature Precipitation Wind Pressure Humidity
00:00 +9°C° 0 mm 3 mps 743 mmHg 81%
01:00 +9°C° 0 mm 3 mps 743 mmHg 80%
02:00 +9°C° 0 mm 3 mps 742 mmHg 78%
03:00 +9°C° 0 mm 3 mps 742 mmHg 77%
04:00 +10°C° 0 mm 3 mps 741 mmHg 76%
05:00 +11°C° 0 mm 4 mps 741 mmHg 75%
06:00 +12°C° 0 mm 4 mps 741 mmHg 74%
07:00 +13°C° 0 mm 4 mps 741 mmHg 74%
08:00 +13°C° 0 mm 5 mps 742 mmHg 72%
09:00 +14°C° 0 mm 5 mps 742 mmHg 69%
10:00 +15°C° 0 mm 6 mps 742 mmHg 67%
11:00 +15°C° 0.2 mm 6 mps 743 mmHg 65%
12:00 +15°C° 0.2 mm 6 mps 743 mmHg 63%
13:00 +15°C° 0.2 mm 6 mps 743 mmHg 60%
14:00 +15°C° 0.1 mm 5 mps 743 mmHg 59%
15:00 +15°C° 0.1 mm 5 mps 743 mmHg 57%
16:00 +15°C° 0.1 mm 5 mps 743 mmHg 55%
17:00 +14°C° 0 mm 4 mps 743 mmHg 60%
18:00 +12°C° 0 mm 3 mps 743 mmHg 64%
19:00 +12°C° 0 mm 2 mps 743 mmHg 69%
20:00 +10°C° 0 mm 2 mps 743 mmHg 71%
21:00 +9°C° 0 mm 3 mps 744 mmHg 74%
22:00 +8°C° 0 mm 3 mps 744 mmHg 76%
23:00 +8°C° 0 mm 3 mps 744 mmHg 77%

23 May, Sunday

Time Temperature Precipitation Wind Pressure Humidity
00:00 +7°C° 0 mm 3 mps 743 mmHg 78%
01:00 +7°C° 0 mm 2 mps 743 mmHg 78%
02:00 +7°C° 0 mm 2 mps 743 mmHg 80%
03:00 +5°C° 0 mm 3 mps 743 mmHg 81%
04:00 +5°C° 0 mm 3 mps 743 mmHg 82%
05:00 +8°C° 0 mm 3 mps 743 mmHg 77%
06:00 +10°C° 0 mm 3 mps 744 mmHg 72%
07:00 +12°C° 0 mm 4 mps 744 mmHg 67%
08:00 +13°C° 0 mm 4 mps 744 mmHg 64%
09:00 +14°C° 0 mm 5 mps 744 mmHg 61%
10:00 +15°C° 0 mm 5 mps 744 mmHg 58%
11:00 +15°C° 0.1 mm 5 mps 744 mmHg 57%
12:00 +15°C° 0.1 mm 5 mps 744 mmHg 57%
13:00 +15°C° 0.1 mm 4 mps 744 mmHg 57%
14:00 +15°C° 0.1 mm 4 mps 744 mmHg 56%
15:00 +15°C° 0.1 mm 4 mps 745 mmHg 56%
16:00 +15°C° 0.1 mm 4 mps 745 mmHg 55%
17:00 +14°C° 0 mm 4 mps 745 mmHg 61%
18:00 +13°C° 0 mm 4 mps 746 mmHg 67%
19:00 +12°C° 0 mm 3 mps 746 mmHg 72%
20:00 +10°C° 0 mm 3 mps 747 mmHg 75%
21:00 +9°C° 0 mm 3 mps 747 mmHg 79%
22:00 +8°C° 0 mm 3 mps 748 mmHg 82%
23:00 +8°C° 0 mm 3 mps 748 mmHg 84%
Show more